GW2742 Weather Reports


time (UTC)temp
C
wind
direction
speed
KPH
gust
KPH
rain 1hr
cm
rain 24hr
cm
rain mn
cm
humidity
%
barometer
mb
20260905123526 11 0 0.0 0.0 0.00 0.00 0.00 69 1015.7
20260905123107 11 0 0.0 0.0 0.00 0.00 0.00 70 1015.6
20260905122527 11 0 0.0 0.0 0.00 0.00 0.00 67 1015.7
20260905122024 11 0 0.0 0.0 0.00 0.00 0.00 68 1015.8
20260905121546 11 0 0.0 0.0 0.00 0.00 0.00 68 1016.0
20260905121024 11 0 0.0 0.0 0.00 0.00 0.00 67 1016.0
20260905120524 11 0 0.0 0.0 0.00 0.00 0.00 68 1016.1
20260905120045 11 0 0.0 0.0 0.00 0.00 0.00 66 1016.1
20260905115529 11 0 0.0 0.0 0.00 0.00 0.00 67 1016.0
20260905115026 11 0 0.0 0.0 0.00 0.00 0.00 68 1015.9
20260905114546 11 0 0.0 0.0 0.00 0.00 0.00 67 1015.4
20260905114025 11 0 0.0 0.0 0.00 0.00 0.00 67 1015.4
20260905113525 11 0 0.0 0.0 0.00 0.00 0.00 67 1015.4
20260905113045 11 0 0.0 0.0 0.00 0.00 0.00 67 1015.4
20260905112525 12 0 0.0 3.2 0.00 0.00 0.00 67 1015.5
20260905112024 12 0 0.0 3.2 0.00 0.00 0.00 66 1015.5
20260905111549 12 0 0.0 3.2 0.00 0.00 0.00 66 1015.3
20260905111026 12 245 0.0 4.8 0.00 0.00 0.00 65 1015.4
20260905110528 12 0 0.0 4.8 0.00 0.00 0.00 65 1015.3
20260905110042 12 224 0.0 3.2 0.00 0.00 0.00 66 1015.2
20260905105524 12 0 0.0 3.2 0.00 0.00 0.00 68 1015.0
20260905105024 12 0 0.0 4.8 0.00 0.00 0.00 68 1014.8
20260905104551 12 224 1.6 4.8 0.00 0.00 0.00 67 1014.8
20260905104025 12 224 0.0 3.2 0.00 0.00 0.00 68 1014.8
20260905103525 12 224 1.6 3.2 0.00 0.00 0.00 67 1014.9
20260905103054 12 0 0.0 3.2 0.00 0.00 0.00 68 1014.8
20260905102524 12 224 1.6 4.8 0.00 0.00 0.00 66 1014.9
20260905102025 12 0 0.0 4.8 0.00 0.00 0.00 65 1014.9
20260905101544 12 224 1.6 4.8 0.00 0.00 0.00 66 1014.8
20260905101024 12 221 1.6 4.8 0.00 0.00 0.00 65 1014.6
20260905100523 13 228 1.6 4.8 0.00 0.00 0.00 64 1014.5
20260905100053 13 227 0.0 4.8 0.00 0.00 0.00 64 1014.5
20260905095524 13 0 1.6 3.2 0.00 0.00 0.00 62 1014.5
20260905095023 13 0 0.0 3.2 0.00 0.00 0.00 61 1014.8
20260905094553 13 237 0.0 4.8 0.00 0.00 0.00 64 1014.8
20260905094024 13 0 0.0 4.8 0.00 0.00 0.00 61 1014.9
20260905093525 13 245 3.2 4.8 0.00 0.00 0.00 61 1014.9
20260905093045 13 262 0.0 4.8 0.00 0.00 0.00 61 1014.3
20260905092523 14 354 0.0 3.2 0.00 0.00 0.00 60 1014.2
20260905092024 14 0 0.0 3.2 0.00 0.00 0.00 60 1014.3
20260905091551 14 0 0.0 8.0 0.00 0.00 0.00 58 1014.3
20260905091026 14 0 0.0 8.0 0.00 0.00 0.00 59 1014.5
20260905090523 14 220 1.6 8.0 0.00 0.00 0.00 59 1014.6
20260905090047 14 0 0.0 0.0 0.00 0.00 0.00 59 1014.2
20260905085524 15 0 0.0 0.0 0.00 0.00 0.00 58 1014.0
20260905085026 15 0 0.0 0.0 0.00 0.00 0.00 56 1014.0
20260905084553 15 0 0.0 1.6 0.00 0.00 0.00 54 1014.0
20260905084024 15 0 0.0 1.6 0.00 0.00 0.00 55 1014.3
20260905083530 16 325 0.0 4.8 0.00 0.00 0.00 52 1014.4
20260905083044 16 0 0.0 6.4 0.00 0.00 0.00 54 1014.3
20260905082524 16 304 1.6 6.4 0.00 0.00 0.00 50 1014.3
20260905082024 16 176 1.6 6.4 0.00 0.00 0.00 50 1014.2
20260905081543 16 178 0.0 4.8 0.00 0.00 0.00 52 1014.2
20260905081029 16 0 0.0 4.8 0.00 0.00 0.00 51 1014.2
20260905080523 16 0 0.0 6.4 0.00 0.00 0.00 50 1014.2
20260905080128 16 178 1.6 6.4 0.00 0.00 0.00 51 1014.3
20260905075524 16 207 1.6 4.8 0.00 0.00 0.00 51 1014.2
20260905075025 16 160 1.6 4.8 0.00 0.00 0.00 49 1014.2
20260905074544 16 159 1.6 3.2 0.00 0.00 0.00 49 1014.0
20260905074023 17 0 0.0 4.8 0.00 0.00 0.00 48 1013.9
20260905073523 17 0 0.0 6.4 0.00 0.00 0.00 49 1013.7
20260905073045 17 167 1.6 6.4 0.00 0.00 0.00 49 1013.9
20260905072528 17 237 0.0 3.2 0.00 0.00 0.00 50 1013.8
20260905072028 17 237 1.6 3.2 0.00 0.00 0.00 46 1013.6
20260905071542 17 237 0.0 3.2 0.00 0.00 0.00 47 1013.6
20260905071023 18 0 0.0 3.2 0.00 0.00 0.00 48 1013.7
20260905070528 18 0 0.0 3.2 0.00 0.00 0.00 48 1013.6
20260905070057 18 0 1.6 3.2 0.00 0.00 0.00 44 1013.6
20260905065527 18 237 0.0 3.2 0.00 0.00 0.00 45 1013.7
20260905065026 19 237 0.0 3.2 0.00 0.00 0.00 43 1013.4
20260905064553 19 237 1.6 3.2 0.00 0.00 0.00 41 1013.5
20260905064024 19 0 0.0 3.2 0.00 0.00 0.00 43 1013.4
20260905063525 19 237 0.0 3.2 0.00 0.00 0.00 41 1013.4
20260905063047 19 0 0.0 4.8 0.00 0.00 0.00 39 1013.2
20260905062524 20 0 1.6 4.8 0.00 0.00 0.00 39 1013.2
20260905062025 20 245 1.6 4.8 0.00 0.00 0.00 37 1013.1
20260905061546 20 0 0.0 4.8 0.00 0.00 0.00 37 1012.7
20260905061032 20 0 1.6 6.4 0.00 0.00 0.00 36 1012.6
20260905060528 21 340 3.2 6.4 0.00 0.00 0.00 35 1012.4
20260905060104 21 336 0.0 8.0 0.00 0.00 0.00 34 1012.3
20260905055527 21 0 1.6 9.7 0.00 0.00 0.00 34 1012.4
20260905055028 22 33 1.6 12.9 0.00 0.00 0.00 33 1012.4
20260905054554 22 50 3.2 12.9 0.00 0.00 0.00 32 1012.5
20260905054028 22 345 6.4 11.3 0.00 0.00 0.00 33 1012.5
20260905053528 22 342 4.8 12.9 0.00 0.00 0.00 32 1012.4
20260905053056 22 357 4.8 12.9 0.00 0.00 0.00 31 1012.2
20260905052527 22 325 4.8 11.3 0.00 0.00 0.00 32 1011.9
20260905052025 22 249 4.8 11.3 0.00 0.00 0.00 32 1011.6
20260905051552 22 309 1.6 6.4 0.00 0.00 0.00 31 1011.5
20260905051024 22 330 1.6 12.9 0.00 0.00 0.00 31 1011.5
20260905050529 23 291 1.6 12.9 0.00 0.00 0.00 30 1011.4
20260905050045 23 256 1.6 12.9 0.00 0.00 0.00 30 1011.3
20260905045527 23 248 3.2 12.9 0.00 0.00 0.00 30 1011.5
20260905045032 23 250 6.4 16.1 0.00 0.00 0.00 30 1011.6
20260905044552 23 250 6.4 16.1 0.00 0.00 0.00 31 1011.6
20260905044027 23 218 4.8 12.9 0.00 0.00 0.00 31 1011.6
20260905043528 22 4 3.2 12.9 0.00 0.00 0.00 30 1011.3
20260905043104 22 278 3.2 12.9 0.00 0.00 0.00 31 1011.5
20260905042528 22 274 1.6 11.3 0.00 0.00 0.00 31 1011.3
20260905042024 22 127 1.6 11.3 0.00 0.00 0.00 32 1011.4
20260905041544 22 56 1.6 9.7 0.00 0.00 0.00 32 1011.2
20260905041025 22 172 1.6 9.7 0.00 0.00 0.00 32 1011.3
20260905040526 21 0 1.6 12.9 0.00 0.00 0.00 33 1011.3
20260905040052 21 213 1.6 12.9 0.00 0.00 0.00 36 1011.2
20260905035528 21 207 3.2 8.0 0.00 0.00 0.00 36 1011.2
20260905035028 21 176 3.2 8.0 0.00 0.00 0.00 36 1011.2
20260905034544 21 193 1.6 16.1 0.00 0.00 0.00 36 1011.1
20260905034028 21 239 4.8 16.1 0.00 0.00 0.00 33 1011.1
20260905033527 21 252 6.4 16.1 0.00 0.00 0.00 31 1011.0
20260905033044 21 262 0.0 3.2 0.00 0.00 0.00 30 1010.8
20260905032528 21 262 0.0 3.2 0.00 0.00 0.00 31 1010.8
20260905032025 21 0 0.0 3.2 0.00 0.00 0.00 31 1010.7
20260905031553 22 0 0.0 3.2 0.00 0.00 0.00 29 1010.7
20260905031027 22 262 1.6 4.8 0.00 0.00 0.00 29 1010.6
20260905030529 22 0 1.6 4.8 0.00 0.00 0.00 29 1010.4
20260905030049 22 1 0.0 3.2 0.00 0.00 0.00 30 1010.3
20260905025527 23 0 0.0 3.2 0.00 0.00 0.00 27 1010.2
20260905025027 23 0 0.0 3.2 0.00 0.00 0.00 27 1010.2
20260905024543 23 0 0.0 4.8 0.00 0.00 0.00 29 1010.0
20260905024025 24 0 1.6 4.8 0.00 0.00 0.00 26 1010.0
20260905023532 25 0 0.0 3.2 0.00 0.00 0.00 27 1009.8
20260905023045 25 0 0.0 4.8 0.00 0.00 0.00 25 1009.8
20260905022531 25 0 0.0 4.8 0.00 0.00 0.00 25 1009.7
20260905022026 25 229 0.0 4.8 0.00 0.00 0.00 27 1009.6
20260905021553 26 0 0.0 3.2 0.00 0.00 0.00 25 1009.4
20260905021024 26 0 0.0 1.6 0.00 0.00 0.00 25 1009.3
20260905020527 26 0 0.0 1.6 0.00 0.00 0.00 22 1009.2
20260905020053 27 181 0.0 4.8 0.00 0.00 0.00 22 1009.2
20260905015524 27 0 1.6 6.4 0.00 0.00 0.00 21 1009.2
20260905015026 28 181 1.6 6.4 0.00 0.00 0.00 21 1009.1
20260905014544 28 190 0.0 8.0 0.00 0.00 0.00 20 1009.0
20260905014029 28 123 3.2 8.0 0.00 0.00 0.00 20 1009.0
20260905013525 29 0 1.6 4.8 0.00 0.00 0.00 19 1009.0
20260905013047 29 83 0.0 4.8 0.00 0.00 0.00 18 1008.9
20260905012526 29 0 1.6 4.8 0.00 0.00 0.00 19 1008.9
20260905012025 30 198 0.0 6.4 0.00 0.00 0.00 20 1008.8
20260905011607 30 0 1.6 9.7 0.00 0.00 0.00 20 1008.7
20260905011025 30 184 1.6 20.9 0.00 0.00 0.00 19 1008.7
20260905010528 31 190 6.4 20.9 0.00 0.00 0.00 18 1008.5
20260905010045 31 120 11.3 20.9 0.00 0.00 0.00 16 1008.6
20260905005525 31 75 6.4 22.5 0.00 0.00 0.00 17 1008.3
20260905005028 31 107 4.8 22.5 0.00 0.00 0.00 17 1008.5
20260905004545 31 132 8.0 19.3 0.00 0.00 0.00 18 1008.3
20260905004024 31 137 6.4 16.1 0.00 0.00 0.00 18 1008.3
20260905003524 31 110 9.7 17.7 0.00 0.00 0.00 18 1008.3
20260905003056 31 126 8.0 20.9 0.00 0.00 0.00 16 1008.3
20260905002526 31 77 8.0 20.9 0.00 0.00 0.00 17 1008.2
20260905002028 31 98 8.0 20.9 0.00 0.00 0.00 17 1008.3
20260905001553 31 124 11.3 20.9 0.00 0.00 0.00 17 1008.3
20260905001027 31 142 11.3 20.9 0.00 0.00 0.00 16 1008.3
20260905000526 31 133 8.0 19.3 0.00 0.00 0.00 16 1008.3
20260905000048 31 118 8.0 24.1 0.00 0.00 0.00 18 1008.3
20260904235527 31 65 9.7 24.1 0.00 0.00 0.00 17 1008.2
20260904235027 31 96 8.0 24.1 0.00 0.00 0.00 17 1008.5
20260904234546 31 97 9.7 24.1 0.00 0.00 0.00 18 1008.5
20260904234024 31 127 9.7 24.1 0.00 0.00 0.00 15 1008.5
20260904233528 31 74 11.3 24.1 0.00 0.00 0.00 17 1008.5
20260904233053 31 95 6.4 19.3 0.00 0.00 0.00 18 1008.6
20260904232530 31 146 9.7 19.3 0.00 0.00 0.00 16 1008.6
20260904232027 31 101 8.0 19.3 0.00 0.00 0.00 20 1008.5
20260904231548 31 160 8.0 20.9 0.00 0.00 0.00 16 1008.6
20260904231027 32 124 11.3 20.9 0.00 0.00 0.00 16 1008.6
20260904230531 32 105 8.0 14.5 0.00 0.00 0.00 17 1008.6
20260904230049 32 154 3.2 12.9 0.00 0.00 0.00 17 1008.6
20260904225525 32 90 3.2 14.5 0.00 0.00 0.00 20 1008.8
20260904225025 32 169 6.4 14.5 0.00 0.00 0.00 16 1008.7
20260904224544 32 139 6.4 14.5 0.00 0.00 0.00 18 1008.8
20260904224027 32 128 3.2 14.5 0.00 0.00 0.00 17 1008.8
20260904223526 32 117 4.8 11.3 0.00 0.00 0.00 15 1008.8
20260904223044 32 59 3.2 11.3 0.00 0.00 0.00 18 1008.9
20260904222524 32 68 3.2 12.9 0.00 0.00 0.00 19 1009.0
20260904222025 31 201 4.8 17.7 0.00 0.00 0.00 16 1009.0
20260904221544 31 64 6.4 17.7 0.00 0.00 0.00 17 1009.1
20260904221027 31 96 6.4 16.1 0.00 0.00 0.00 18 1009.1
20260904220527 31 87 6.4 16.1 0.00 0.00 0.00 16 1009.1
20260904220105 31 85 9.7 16.1 0.00 0.00 0.00 16 1009.2
20260904215530 31 125 4.8 14.5 0.00 0.00 0.00 22 1009.2
20260904215026 31 106 4.8 9.7 0.00 0.00 0.00 15 1009.2
20260904214546 31 79 1.6 8.0 0.00 0.00 0.00 16 1009.1
20260904214026 31 41 3.2 8.0 0.00 0.00 0.00 15 1009.1
20260904213527 31 33 0.0 16.1 0.00 0.00 0.00 17 1009.1
20260904213051 31 159 3.2 16.1 0.00 0.00 0.00 20 1009.1
20260904212529 31 69 3.2 11.3 0.00 0.00 0.00 16 1009.2
20260904212028 31 70 1.6 9.7 0.00 0.00 0.00 17 1009.1
20260904211545 31 287 0.0 20.9 0.00 0.00 0.00 20 1009.2
20260904211030 31 99 4.8 20.9 0.00 0.00 0.00 18 1009.2
20260904210526 31 175 8.0 16.1 0.00 0.00 0.00 18 1009.2
20260904210045 31 131 6.4 12.9 0.00 0.00 0.00 22 1009.4
20260904205529 31 325 4.8 11.3 0.00 0.00 0.00 18 1009.3
20260904205028 31 63 3.2 11.3 0.00 0.00 0.00 17 1009.4
20260904204544 31 0 4.8 19.3 0.00 0.00 0.00 16 1009.3
20260904204027 30 122 9.7 19.3 0.00 0.00 0.00 18 1009.4
20260904203527 30 91 4.8 12.9 0.00 0.00 0.00 18 1009.4
20260904203049 30 40 4.8 12.9 0.00 0.00 0.00 18 1009.4
20260904202526 30 25 1.6 9.7 0.00 0.00 0.00 19 1009.4
20260904202025 30 49 1.6 11.3 0.00 0.00 0.00 18 1009.4
20260904201600 30 349 3.2 11.3 0.00 0.00 0.00 21 1009.5
20260904201031 30 90 4.8 16.1 0.00 0.00 0.00 17 1009.6
20260904200524 30 82 6.4 16.1 0.00 0.00 0.00 22 1009.7
20260904200050 30 77 6.4 19.3 0.00 0.00 0.00 18 1009.6
20260904195525 30 142 9.7 19.3 0.00 0.00 0.00 21 1009.6
20260904195026 30 359 4.8 12.9 0.00 0.00 0.00 22 1009.7
20260904194542 30 146 6.4 12.9 0.00 0.00 0.00 19 1009.7
20260904194031 30 74 4.8 12.9 0.00 0.00 0.00 20 1009.8
20260904193527 30 84 6.4 11.3 0.00 0.00 0.00 19 1009.9
20260904193050 30 148 4.8 11.3 0.00 0.00 0.00 21 1009.9
20260904192533 30 94 6.4 11.3 0.00 0.00 0.00 19 1009.9
20260904192028 29 77 4.8 12.9 0.00 0.00 0.00 21 1010.1
20260904191544 29 89 6.4 12.9 0.00 0.00 0.00 24 1010.0
20260904191025 29 193 4.8 11.3 0.00 0.00 0.00 22 1010.1
20260904190525 29 220 3.2 16.1 0.00 0.00 0.00 24 1010.1
20260904190042 29 136 4.8 16.1 0.00 0.00 0.00 24 1010.1
20260904185524 29 311 3.2 12.9 0.00 0.00 0.00 25 1010.1
20260904185024 29 143 4.8 16.1 0.00 0.00 0.00 22 1010.3
20260904184544 28 64 8.0 16.1 0.00 0.00 0.00 24 1010.4
20260904184029 28 127 4.8 16.1 0.00 0.00 0.00 27 1010.3
20260904183530 28 89 1.6 9.7 0.00 0.00 0.00 22 1010.4
20260904183058 28 120 3.2 9.7 0.00 0.00 0.00 24 1010.7
20260904182526 28 61 3.2 9.7 0.00 0.00 0.00 22 1010.6
20260904182030 28 54 3.2 9.7 0.00 0.00 0.00 22 1010.7
20260904181544 28 42 4.8 9.7 0.00 0.00 0.00 21 1010.8
20260904181025 28 127 4.8 19.3 0.00 0.00 0.00 24 1010.7
20260904180528 28 89 6.4 19.3 0.00 0.00 0.00 22 1010.9
20260904180056 28 121 6.4 17.7 0.00 0.00 0.00 25 1010.9
20260904175525 28 150 4.8 14.5 0.00 0.00 0.00 30 1011.0
20260904175027 27 103 3.2 11.3 0.00 0.00 0.00 28 1011.0
20260904174557 27 96 3.2 8.0 0.00 0.00 0.00 24 1011.0
20260904174027 27 111 3.2 8.0 0.00 0.00 0.00 23 1011.2
20260904173527 27 112 3.2 12.9 0.00 0.00 0.00 27 1011.3
20260904173112 26 118 3.2 12.9 0.00 0.00 0.00 28 1011.3
20260904172532 26 141 6.4 12.9 0.00 0.00 0.00 26 1011.3
20260904172027 26 179 4.8 12.9 0.00 0.00 0.00 29 1011.5
20260904171553 26 91 3.2 12.9 0.00 0.00 0.00 25 1011.3
20260904171024 26 147 4.8 14.5 0.00 0.00 0.00 26 1011.3
20260904170524 26 104 8.0 16.1 0.00 0.00 0.00 24 1011.3
20260904170049 26 72 8.0 16.1 0.00 0.00 0.00 24 1011.4
20260904165524 25 82 6.4 16.1 0.00 0.00 0.00 28 1011.4
20260904165026 25 86 6.4 17.7 0.00 0.00 0.00 31 1011.5
20260904164555 25 158 8.0 17.7 0.00 0.00 0.00 26 1011.5
20260904164027 25 84 8.0 14.5 0.00 0.00 0.00 28 1011.5
20260904163534 25 90 8.0 14.5 0.00 0.00 0.00 29 1011.5
20260904163048 24 91 4.8 12.9 0.00 0.00 0.00 31 1011.5
20260904162529 23 138 6.4 12.9 0.00 0.00 0.00 31 1011.5
20260904162024 23 117 6.4 12.9 0.00 0.00 0.00 32 1011.5
20260904161543 22 0 0.0 4.8 0.00 0.00 0.00 41 1011.5
20260904161025 22 250 0.0 4.8 0.00 0.00 0.00 47 1011.3
20260904160528 21 236 1.6 4.8 0.00 0.00 0.00 44 1011.4
20260904160044 21 221 0.0 3.2 0.00 0.00 0.00 42 1011.4
20260904155525 21 0 0.0 6.4 0.00 0.00 0.00 41 1011.4
20260904155025 21 333 1.6 6.4 0.00 0.00 0.00 44 1011.5
20260904154543 20 335 1.6 6.4 0.00 0.00 0.00 44 1011.4
20260904154025 20 0 0.0 6.4 0.00 0.00 0.00 47 1011.4
20260904153527 20 0 0.0 3.2 0.00 0.00 0.00 45 1011.3
20260904153055 19 217 0.0 4.8 0.00 0.00 0.00 42 1011.4
20260904152525 19 0 1.6 4.8 0.00 0.00 0.00 43 1011.3
20260904152024 18 0 0.0 4.8 0.00 0.00 0.00 42 1011.3
20260904151547 18 252 1.6 4.8 0.00 0.00 0.00 50 1011.3
20260904151028 17 55 0.0 3.2 0.00 0.00 0.00 53 1011.3
20260904150529 17 0 0.0 3.2 0.00 0.00 0.00 47 1011.3
20260904150056 17 94 0.0 3.2 0.00 0.00 0.00 53 1011.4
20260904145527 16 0 0.0 3.2 0.00 0.00 0.00 51 1011.4
20260904145030 16 0 0.0 4.8 0.00 0.00 0.00 60 1011.5
20260904144549 15 0 1.6 4.8 0.00 0.00 0.00 57 1011.5
20260904144028 15 46 0.0 1.6 0.00 0.00 0.00 58 1011.5
20260904143524 15 0 0.0 0.0 0.00 0.00 0.00 59 1011.5
20260904143043 15 0 0.0 3.2 0.00 0.00 0.00 64 1011.6
20260904142525 14 0 0.0 3.2 0.00 0.00 0.00 66 1011.5
20260904142026 13 94 0.0 3.2 0.00 0.00 0.00 66 1011.5
20260904141544 13 0 0.0 0.0 0.00 0.00 0.00 64 1011.5
20260904141025 12 0 0.0 0.0 0.00 0.00 0.00 69 1011.5
20260904140524 12 0 0.0 0.0 0.00 0.00 0.00 69 1011.4
20260904140047 11 0 0.0 4.8 0.00 0.00 0.00 72 1011.4
20260904135527 11 0 0.0 6.4 0.00 0.00 0.00 72 1011.4
20260904135027 10 0 1.6 6.4 0.00 0.00 0.00 71 1011.3
20260904134548 10 216 3.2 6.4 0.00 0.00 0.00 73 1011.3
20260904134025 10 257 3.2 6.4 0.00 0.00 0.00 74 1011.0
20260904133525 9 0 0.0 0.0 0.00 0.00 0.00 76 1011.1
20260904133047 8 0 0.0 0.0 0.00 0.00 0.00 76 1011.0
20260904132525 8 0 0.0 0.0 0.00 0.00 0.00 77 1010.9
20260904132025 8 0 0.0 0.0 0.00 0.00 0.00 78 1011.0
20260904131545 7 0 0.0 0.0 0.00 0.00 0.00 79 1010.8
20260904131026 7 0 0.0 0.0 0.00 0.00 0.00 77 1010.6
20260904130527 7 0 0.0 0.0 0.00 0.00 0.00 77 1010.5
20260904130052 7 0 0.0 0.0 0.00 0.00 0.00 78 1010.6
20260904125529 7 0 0.0 0.0 0.00 0.00 0.00 80 1010.4
20260904125028 7 0 0.0 0.0 0.00 0.00 0.00 81 1010.4
20260904124556 7 0 0.0 0.0 0.00 0.00 0.00 81 1010.3
20260904124023 7 0 0.0 0.0 0.00 0.00 0.00 81 1010.3